{"data":{"norad_id":54080,"epoch":"2026-06-19T23:44:56.959296Z","epoch_age_seconds":8079332,"freshness":"OLD","line1":"1 54080U 22136AF  26170.98954814  .10552025  12517-4  19106-3 0  9995","line2":"2 54080  53.1984 209.3392 0003128 141.1034 219.0243 16.47549820202781","mean_motion":16.4754982,"eccentricity":0.0003128,"inclination_deg":53.1984,"raan_deg":209.3392,"arg_perigee_deg":141.1034,"mean_anomaly_deg":219.0243,"bstar":0.00019106,"rev_number":20278,"period_min":87.402516301449,"perigee_km":143.75498936507,"apogee_km":147.83636164687,"semimajor_km":6523.932675506,"source":"CELESTRAK","updated_at":"2026-06-20T09:00:48.474105Z"}}